Location: Raleigh
(35.7720°N, 78.6390°W)
Time: 06:05:06
(UTC-04:00)

Amateur Radio Satellites - All Passes

Search period start: 31 May 2016 05:35
Search period end: 01 June 2016 05:35
Location: Raleigh, 35.7720°N, 78.6390°W

Satellite Date Start Highest point End Downlink Frequencies (MHz)
Time Altitude Azimuth
STARS 31 May 05:40:11 05:43:25 20° 265° (W) 05:46:39 437.465
JUGNU 31 May 05:42:14 05:45:33 15° 173° (S) 05:48:54 437.505
YUBILEINY 31 May 05:50:57 05:55:49 16° 281° (W) 06:00:42 435.215
CUBESAT XI-V 31 May 05:55:33 06:00:13 84° 77° (ENE) 06:04:57 437.345
Cosmos 2504 31 May 06:18:23 06:26:06 39° 273° (W) 06:34:03 435.465 / 435.565
NOAA 18 31 May 06:32:47 06:37:06 23° 96° (E) 06:41:25 137.9125
HORYU 2 31 May 06:34:06 06:38:19 43° 287° (WNW) 06:42:31 437.375
Cosmos 2491 31 May 06:46:57 06:50:47 13° 297° (WNW) 06:54:38 435.465 / 435.565
CUTE-I 31 May 06:47:37 06:52:09 27° 96° (E) 06:56:38 437.470
BRITE-PL 31 May 06:47:46 06:52:03 30° 95° (E) 06:56:01 437.365/2234.400
AO-85 31 May 06:48:07 06:52:32 25° 310° (NW) 06:56:53 145.980
GOMX 1 31 May 06:53:49 06:56:01 13° 91° (E) 06:58:09 467.674
STRAND 1 31 May 07:10:52 07:15:34 39° 71° (ENE) 07:20:19 437.568
LilacSat-2 31 May 07:14:44 07:18:24 47° 99° (E) 07:22:05 437.200
AO-7 31 May 07:19:18 07:24:06 17° 307° (NW) 07:28:55 29.400- 29.500
NOAA 15 31 May 07:22:55 07:28:14 89° 103° (ESE) 07:33:30 137.62
DOVE 4 31 May 07:23:16 07:24:50 12° 91° (E) 07:26:22 437.250
JUGNU 31 May 07:30:12 07:33:49 16° 183° (S) 07:37:26 437.505
Cubesat XI-IV 31 May 07:41:54 07:47:17 89° 282° (WNW) 07:52:40 437.490
SRMSAT 31 May 07:43:15 07:46:28 15° 172° (S) 07:49:41 437.500
GONETS M04 31 May 07:47:52 07:53:30 18° 67° (ENE) 07:59:05
NOAA 18 31 May 08:12:44 08:17:49 40° 290° (WNW) 08:22:54 137.9125
SO-50 31 May 08:15:24 08:19:05 22° 50° (NE) 08:22:40 436.795
CUTE 1.7 + AOD 2 31 May 08:18:18 08:20:35 14° 93° (E) 08:22:52 437.475
O/OREOS (USA 219) 31 May 08:20:18 08:23:34 20° 101° (E) 08:26:51 437.305
HO-68 31 May 08:23:05 08:28:54 26° 96° (E) 08:34:42 435.675
BRITE-PL 31 May 08:26:30 08:30:20 23° 293° (WNW) 08:33:56 437.365/2234.400
CUTE-I 31 May 08:27:24 08:32:09 33° 291° (WNW) 08:36:53 437.470
GOMX 1 31 May 08:30:08 08:34:24 42° 287° (WNW) 08:38:25 467.674
AIST 1 31 May 08:43:21 08:47:41 79° 265° (W) 08:51:57
Cosmos 2499 31 May 08:48:00 08:55:25 30° 72° (ENE) 09:02:52 435.465 / 435.565
STRAND 1 31 May 08:51:06 08:54:50 21° 265° (W) 08:58:37 437.568
DOVE 4 31 May 08:58:45 09:02:49 44° 287° (WNW) 09:06:45 437.250
CINEMA 3 31 May 08:59:43 09:03:43 46° 99° (E) 09:07:44 145.822/145.860
PRISM 31 May 09:00:18 09:04:26 81° 257° (WSW) 09:08:38 437.425
AUBIESAT-1 31 May 09:01:19 09:04:13 27° 103° (ESE) 09:07:08 437.475
NOAA 15 31 May 09:06:25 09:07:11 10° 300° (WNW) 09:07:58 137.62
M-CUBED/EXP-1 PRIME 31 May 09:11:22 09:14:34 50° 105° (ESE) 09:17:48 437.505
JUGNU 31 May 09:20:20 09:22:03 11° 193° (SSW) 09:23:46 437.505
SEEDS 31 May 09:20:25 09:24:36 56° 100° (E) 09:28:48 437.485
CUBEBUG 2 31 May 09:22:27 09:25:54 24° 96° (E) 09:29:23 437.445
CANX-2 31 May 09:25:52 09:30:10 74° 282° (WNW) 09:34:26 2200.000
Cubesat XI-IV 31 May 09:25:55 09:26:32 10° 300° (WNW) 09:27:09 437.490
PCSat 31 May 09:27:17 09:32:42 86° 296° (WNW) 09:38:10 145.827
SRMSAT 31 May 09:31:14 09:34:53 17° 182° (S) 09:38:31 437.500
FUNcube-1 31 May 09:36:04 09:38:22 14° 93° (E) 09:40:41 145.935
UNISAT 6 31 May 09:40:13 09:41:51 12° 66° (ENE) 09:43:29 437.425
UWE-3 31 May 09:42:17 09:45:56 28° 97° (E) 09:49:38 435.000/436.395/437.385
GONETS M04 31 May 09:42:34 09:51:17 81° 266° (W) 09:59:58
TIGRISAT 31 May 09:45:56 09:47:57 13° 66° (ENE) 09:49:58 435.000
CUTE 1.7 + AOD 2 31 May 09:52:32 09:56:34 41° 287° (WNW) 10:00:35 437.475
SO-50 31 May 09:55:24 09:59:40 37° 246° (WSW) 10:03:48 436.795
DELFI C3 31 May 09:55:50 09:57:28 12° 92° (E) 09:59:06 145.870
AAUSAT CUBESAT 2 31 May 09:57:24 10:01:37 88° 106° (ESE) 10:05:49 437.432
O/OREOS (USA 219) 31 May 09:58:36 10:02:42 33° 295° (WNW) 10:06:49 437.305
COMPASS 1 31 May 09:58:58 10:03:10 69° 284° (WNW) 10:07:22 437.405
HO-68 31 May 10:09:55 10:16:50 52° 291° (WNW) 10:23:43 435.675
Oscar 11 31 May 10:12:36 10:16:49 48° 99° (E) 10:21:01 145.826/435.025
ANTELSAT 31 May 10:18:46 10:22:39 33° 72° (ENE) 10:26:29 437.575/2403.000
ZACube-1 31 May 10:34:44 10:38:59 80° 103° (ESE) 10:43:18 437.345
AUBIESAT-1 31 May 10:36:58 10:38:30 13° 296° (WNW) 10:40:02 437.475
BEESAT 2 31 May 10:37:45 10:41:09 27° 112° (ESE) 10:44:32 435.950
CINEMA 3 31 May 10:38:49 10:40:27 12° 294° (WNW) 10:42:04 145.822/145.860
Cosmos 2499 31 May 10:40:21 10:48:50 57° 270° (W) 10:57:25 435.465 / 435.565
CUSAT 1 31 May 10:49:50 10:55:14 27° 84° (E) 11:01:24 437.405
SEEDS 31 May 10:58:38 10:59:47 11° 295° (WNW) 11:00:57 437.485
CUBEBUG 2 31 May 10:59:05 11:02:24 23° 290° (WNW) 11:05:46 437.445
DUCHIFAT 1 31 May 11:02:21 11:04:51 16° 67° (ENE) 11:07:21 145.980
BEESAT 3 31 May 11:03:45 11:07:40 73° 300° (WNW) 11:11:37 437.485
FUNcube-1 31 May 11:10:47 11:14:44 39° 287° (WNW) 11:18:45 145.935
UNISAT 6 31 May 11:13:52 11:18:07 52° 260° (W) 11:22:19 437.425
PCSat 31 May 11:14:35 11:16:53 13° 314° (NW) 11:19:11 145.827
UWE-3 31 May 11:19:06 11:22:13 20° 290° (WNW) 11:25:22 435.000/436.395/437.385
TIGRISAT 31 May 11:20:03 11:24:14 47° 260° (W) 11:28:22 435.000
SRMSAT 31 May 11:21:10 11:23:16 12° 193° (SSW) 11:25:22 437.500
DANDE 31 May 11:22:34 11:26:50 21° 81° (E) 11:31:49 436.750
DELFI C3 31 May 11:28:41 11:32:30 41° 286° (WNW) 11:36:18 145.870
HUMSAT D 31 May 11:42:51 11:47:02 71° 283° (WNW) 11:51:15 437.325/437.525
GONETS M04 31 May 11:43:23 11:46:36 13° 283° (WNW) 11:49:50
QB50P1 31 May 11:43:30 11:47:37 53° 74° (ENE) 11:51:44 145.935-145.965
POPSAT HIP 1 31 May 11:43:31 11:47:38 52° 74° (ENE) 11:51:45 437.405
QB50P2 31 May 11:47:15 11:51:26 63° 75° (ENE) 11:55:36 145.880/145.840
POLYITAN 1 31 May 11:49:44 11:53:55 65° 75° (ENE) 11:58:06 437.675
Oscar 11 31 May 11:50:26 11:52:30 13° 294° (WNW) 11:54:35 145.826/435.025
ANTELSAT 31 May 11:56:30 11:59:24 17° 266° (W) 12:02:17 437.575/2403.000
NANOSAT C BR1 31 May 11:59:23 12:03:37 81° 75° (ENE) 12:07:50 145.865
DX 1 31 May 12:15:16 12:18:34 21° 96° (E) 12:21:51 434.975-435.025
BEESAT 2 31 May 12:15:51 12:18:57 22° 308° (NW) 12:22:04 435.950
CUBEBUG 1 31 May 12:16:38 12:20:24 28° 97° (E) 12:24:07 437.445
JAS-2 31 May 12:25:14 12:31:53 36° 66° (ENE) 12:38:50 435.910
SPROUT 31 May 12:25:56 12:27:47 13° 92° (E) 12:29:37 437.525
ESTCUBE 1 31 May 12:30:00 12:34:31 63° 101° (E) 12:39:00 437.505/2401.250
CUSAT 1 31 May 12:30:24 12:36:45 51° 284° (WNW) 12:44:21 437.405
VELOX 1 31 May 12:34:27 12:38:40 43° 99° (E) 12:42:51 145.980
DUCHIFAT 1 31 May 12:36:18 12:40:13 37° 261° (W) 12:44:08 145.980
BUGSAT 1 31 May 12:36:27 12:40:39 87° 257° (WSW) 12:44:49 437.445
50 SAT 31 May 12:37:49 12:41:30 58° 100° (E) 12:45:11 437.505
UKube-1 31 May 12:55:51 13:00:03 51° 100° (E) 13:04:14 .
DANDE 31 May 13:03:12 13:08:46 55° 284° (WNW) 13:16:00 436.750
AISAT 31 May 13:11:01 13:15:23 64° 285° (WNW) 13:19:42 437.250
AIST 2 31 May 13:21:17 13:25:23 73° 301° (WNW) 13:29:32 435.215
POPSAT HIP 1 31 May 13:22:50 13:23:41 10° 268° (W) 13:24:32 437.405
QB50P1 31 May 13:23:00 13:23:40 10° 268° (W) 13:24:19 145.935-145.965
Oscar 19 31 May 13:29:10 13:34:07 47° 72° (ENE) 13:39:05 437.125/150
AO-85 31 May 13:42:42 13:45:53 18° 47° (NE) 13:48:53 145.980
DX 1 31 May 13:51:00 13:54:44 28° 290° (WNW) 13:58:26 434.975-435.025
CUBEBUG 1 31 May 13:53:12 13:56:30 21° 291° (WNW) 13:59:47 437.445
SPROUT 31 May 13:59:53 14:03:56 44° 286° (WNW) 14:07:58 437.525
TISAT 1 31 May 14:08:05 14:12:10 53° 100° (E) 14:16:13 437.305
ESTCUBE 1 31 May 14:09:18 14:10:44 11° 296° (WNW) 14:12:10 437.505/2401.250
JAS-2 31 May 14:09:38 14:16:36 45° 263° (W) 14:24:03 435.910
VELOX 1 31 May 14:12:15 14:14:43 15° 294° (WNW) 14:17:12 145.980
ITAMSAT 1 31 May 14:21:14 14:25:13 23° 67° (ENE) 14:29:12 435.822/435.867
Gurwin Techsat 1B 31 May 14:25:46 14:31:01 69° 74° (ENE) 14:36:19 435.225
AO-7 31 May 14:30:15 14:36:05 22° 56° (NE) 14:41:56 29.400- 29.500
UKube-1 31 May 14:33:47 14:35:37 13° 295° (WNW) 14:37:27 .
YUBILEINY 31 May 14:55:47 15:01:18 19° 80° (E) 15:06:48 435.215
Cosmos 2491 31 May 14:57:57 15:06:18 46° 77° (ENE) 15:14:32 435.465 / 435.565
Oscar 19 31 May 15:10:10 15:13:38 18° 266° (W) 15:17:07 437.125/150
SWISSCUBE 31 May 15:16:12 15:20:57 58° 101° (E) 15:25:40 437.505
RS-15 31 May 15:21:38 15:28:58 20° 99° (E) 15:36:28 29.354- 29.394
AO-85 31 May 15:22:21 15:26:37 43° 246° (WSW) 15:30:32 145.980
ITUPSAT 1 31 May 15:24:43 15:29:30 63° 101° (ESE) 15:34:15 437.325
BEESAT 31 May 15:45:22 15:50:09 76° 285° (WNW) 15:54:56 436.000
TISAT 1 31 May 15:46:07 15:47:19 11° 295° (WNW) 15:48:32 437.305
ITAMSAT 1 31 May 15:59:39 16:04:25 37° 262° (W) 16:09:14 435.822/435.867
Gurwin Techsat 1B 31 May 16:09:20 16:11:24 12° 269° (W) 16:13:28 435.225
MOZHAYETS 4 31 May 16:18:32 16:22:03 21° 95° (E) 16:25:33
AO-7 31 May 16:19:38 16:27:55 79° 254° (WSW) 16:36:17 29.400- 29.500
YUBILEINY 31 May 16:48:21 16:57:01 77° 277° (W) 17:05:45 435.215
Cosmos 2491 31 May 16:55:16 17:02:46 34° 275° (W) 17:10:15 435.465 / 435.565
SWISSCUBE 31 May 16:55:51 16:58:13 14° 296° (WNW) 17:00:34 437.505
Cosmos 2504 31 May 17:00:51 17:07:09 33° 86° (E) 17:13:45 435.465 / 435.565
NOAA 15 31 May 17:04:09 17:06:14 12° 62° (ENE) 17:08:19 137.62
ITUPSAT 1 31 May 17:04:41 17:06:46 13° 296° (WNW) 17:08:49 437.325
KKS-1 31 May 17:07:18 17:11:44 82° 286° (WNW) 17:16:09 437.445
Cubesat XI-IV 31 May 17:24:36 17:26:58 13° 62° (ENE) 17:29:19 437.490
RS-15 31 May 17:28:20 17:39:37 89° 298° (WNW) 17:51:36 29.354- 29.394
HORYU 2 31 May 17:28:49 17:33:12 68° 258° (WSW) 17:37:36 437.375
STARS 31 May 17:30:58 17:35:20 89° 299° (WNW) 17:39:42 437.465
BRITE-PL 31 May 17:54:22 17:59:17 31° 70° (ENE) 18:04:11 437.365/2234.400
MOZHAYETS 4 31 May 17:55:06 17:59:13 32° 289° (WNW) 18:03:20
LilacSat-2 31 May 17:55:07 17:57:29 16° 69° (ENE) 17:59:51 437.200
CUBESAT XI-V 31 May 17:55:35 17:59:30 26° 96° (E) 18:03:23 437.345
NOAA 18 31 May 17:56:08 18:01:00 34° 69° (ENE) 18:05:51 137.9125
GOMX 1 31 May 17:58:20 18:01:29 16° 66° (ENE) 18:04:35 467.674
CUTE-I 31 May 18:06:39 18:11:22 34° 69° (ENE) 18:16:07 437.470
PCSat 31 May 18:18:15 18:23:21 40° 58° (ENE) 18:28:25 145.827
AO-7 31 May 18:18:46 18:21:45 12° 270° (W) 18:24:46 29.400- 29.500
DOVE 4 31 May 18:25:46 18:27:57 13° 65° (ENE) 18:30:06 437.250
O/OREOS (USA 219) 31 May 18:32:20 18:35:58 24° 62° (ENE) 18:39:34 437.305
NOAA 15 31 May 18:39:59 18:45:17 77° 256° (WSW) 18:50:38 137.62
HO-68 31 May 18:51:12 18:54:57 15° 57° (ENE) 18:58:41 435.675
YUBILEINY 31 May 18:51:54 18:55:19 13° 297° (WNW) 18:58:45 435.215
Cosmos 2504 31 May 18:53:42 19:00:19 38° 285° (WNW) 19:07:21 435.465 / 435.565
Cubesat XI-IV 31 May 19:01:04 19:06:21 72° 258° (WSW) 19:11:41 437.490
BEESAT 3 31 May 19:24:05 19:27:23 25° 53° (NE) 19:30:41 437.485
STRAND 1 31 May 19:25:15 19:28:32 17° 93° (E) 19:31:49 437.568
PHONESAT 2.4 31 May 19:25:54 19:28:03 17° 145° (SE) 19:30:13 2401.200-2431.200
LilacSat-2 31 May 19:28:16 19:31:33 28° 263° (W) 19:34:50 437.200
BRITE-PL 31 May 19:32:32 19:37:35 33° 264° (W) 19:42:41 437.365/2234.400
CUBESAT XI-V 31 May 19:32:50 19:36:47 27° 290° (WNW) 19:40:41 437.345
GOMX 1 31 May 19:33:36 19:39:01 63° 259° (W) 19:44:20 467.674
NOAA 18 31 May 19:37:04 19:41:37 27° 263° (W) 19:46:12 137.9125
RS-15 31 May 19:44:30 19:53:56 28° 324° (NW) 20:03:48 29.354- 29.394
AUBIESAT-1 31 May 19:44:49 19:48:09 26° 68° (ENE) 19:51:19 437.475
CUTE-I 31 May 19:47:01 19:51:24 26° 264° (W) 19:55:47 437.470
M-CUBED/EXP-1 PRIME 31 May 19:54:58 19:58:53 44° 70° (ENE) 20:02:31 437.505
CINEMA 3 31 May 19:58:21 20:02:30 32° 72° (ENE) 20:06:30 145.822/145.860
DOVE 4 31 May 19:59:55 20:05:06 69° 259° (WSW) 20:10:05 437.250
PCSat 31 May 20:02:12 20:06:27 24° 254° (WSW) 20:10:41 145.827
SEEDS 31 May 20:09:39 20:13:08 26° 71° (ENE) 20:16:38 437.485
O/OREOS (USA 219) 31 May 20:11:33 20:15:17 27° 257° (WSW) 20:19:01 437.305
CANX-2 31 May 20:15:33 20:19:37 51° 75° (ENE) 20:23:43 2200.000
ISS 31 May 20:17:34 20:20:48 64° 320° (NW) 20:24:02 145.825
CUBEBUG 2 31 May 20:18:56 20:21:25 15° 68° (ENE) 20:23:53 437.445
HO-68 31 May 20:34:29 20:41:38 88° 74° (ENE) 20:48:49 435.675
BEESAT 2 31 May 20:35:24 20:39:24 90° 295° (WNW) 20:43:22 435.950
UWE-3 31 May 20:37:33 20:40:14 17° 68° (ENE) 20:42:54 435.000/436.395/437.385
CUTE 1.7 + AOD 2 31 May 20:41:45 20:45:57 87° 259° (W) 20:50:11 437.475
AAUSAT CUBESAT 2 31 May 20:44:46 20:48:34 37° 73° (ENE) 20:52:25 437.432
GONETS M04 31 May 20:45:46 20:52:14 24° 82° (E) 20:58:39
PRISM 31 May 20:45:52 20:48:36 17° 94° (E) 20:51:18 437.425
COMPASS 1 31 May 20:46:36 20:50:36 51° 75° (ENE) 20:54:40 437.405
PHONESAT 2.4 31 May 21:01:22 21:04:30 82° 341° (NNW) 21:07:39 2401.200-2431.200
BEESAT 3 31 May 21:01:49 21:04:57 23° 248° (WSW) 21:08:03 437.485
STRAND 1 31 May 21:02:58 21:07:56 49° 288° (WNW) 21:12:52 437.568
Oscar 11 31 May 21:04:53 21:08:26 26° 70° (ENE) 21:11:59 145.826/435.025
AIST 1 31 May 21:09:09 21:13:30 70° 96° (E) 21:17:54
AUBIESAT-1 31 May 21:19:36 21:22:35 20° 258° (WSW) 21:25:25 437.475
Cosmos 2499 31 May 21:23:06 21:28:15 21° 81° (E) 21:33:38 435.465 / 435.565
ZACube-1 31 May 21:27:48 21:31:45 41° 74° (ENE) 21:35:40 437.345
CUSAT 1 31 May 21:29:28 21:33:49 17° 62° (ENE) 21:37:43 437.405
M-CUBED/EXP-1 PRIME 31 May 21:31:55 21:33:30 12° 260° (W) 21:35:03 437.505
CINEMA 3 31 May 21:36:09 21:39:38 21° 265° (W) 21:43:02 145.822/145.860
AIST 2 31 May 21:45:34 21:49:12 29° 54° (NE) 21:52:49 435.215
SEEDS 31 May 21:45:38 21:48:47 21° 265° (W) 21:51:58 437.485
CUBEBUG 2 31 May 21:53:39 21:57:43 39° 261° (W) 22:01:43 437.445
CANX-2 31 May 21:54:49 21:55:45 11° 269° (W) 21:56:40 2200.000
ISS 31 May 21:56:51 21:57:47 11° 337° (NNW) 21:58:42 145.825
FUNcube-1 31 May 22:03:01 22:07:13 76° 258° (WSW) 22:11:22 145.935
DANDE 31 May 22:04:23 22:10:01 20° 64° (ENE) 22:15:08 436.750
RS-15 31 May 22:06:47 22:12:40 14° 360° (N) 22:18:39 29.354- 29.394
DELFI C3 31 May 22:11:15 22:15:11 71° 76° (ENE) 22:19:10 145.870
UWE-3 31 May 22:12:31 22:16:26 34° 262° (W) 22:20:17 435.000/436.395/437.385
PRISM 31 May 22:20:14 22:23:57 32° 289° (WNW) 22:27:38 437.425
AAUSAT CUBESAT 2 31 May 22:21:58 22:24:11 14° 267° (W) 22:26:25 437.432
COMPASS 1 31 May 22:25:45 22:26:26 10° 269° (W) 22:27:07 437.405
HO-68 31 May 22:26:49 22:30:05 14° 269° (W) 22:33:22 435.675
SO-50 31 May 22:28:21 22:30:44 14° 107° (ESE) 22:33:07 436.795
HUMSAT D 31 May 22:31:10 22:35:06 50° 75° (ENE) 22:39:04 437.325/437.525
PHONESAT 2.4 31 May 22:38:34 22:41:28 33° 355° (N) 22:44:21 2401.200-2431.200
GONETS M04 31 May 22:39:32 22:48:14 65° 279° (W) 22:56:57
Oscar 11 31 May 22:41:06 22:44:29 23° 265° (W) 22:47:54 145.826/435.025
ZACube-1 31 May 23:06:12 23:08:12 13° 267° (W) 23:10:11 437.345
UNISAT 6 31 May 23:08:10 23:12:13 37° 98° (E) 23:16:20 437.425
DX 1 31 May 23:09:10 23:11:23 14° 65° (ENE) 23:13:37 434.975-435.025
CUSAT 1 31 May 23:09:47 23:17:01 75° 265° (W) 23:22:40 437.405
CUBEBUG 1 31 May 23:10:28 23:13:26 18° 68° (ENE) 23:16:24 437.445
Cosmos 2499 31 May 23:13:21 23:20:31 61° 280° (W) 23:28:15 435.465 / 435.565
TIGRISAT 31 May 23:14:02 23:18:08 40° 99° (E) 23:22:18 435.000
50 SAT 31 May 23:14:16 23:16:40 17° 69° (ENE) 23:19:06 437.505
AIST 2 31 May 23:24:20 23:27:30 21° 249° (WSW) 23:30:40 435.215
ESTCUBE 1 31 May 23:26:37 23:30:48 40° 73° (ENE) 23:35:03 437.505/2401.250
VELOX 1 31 May 23:29:06 23:32:53 28° 70° (ENE) 23:36:41 145.980
QB50P1 31 May 23:33:56 23:34:41 10° 92° (E) 23:35:26 145.935-145.965
POPSAT HIP 1 31 May 23:34:13 23:34:45 10° 92° (E) 23:35:15 437.405
QB50P2 31 May 23:36:55 23:38:46 13° 93° (E) 23:40:36 145.880/145.840
POLYITAN 1 31 May 23:39:19 23:41:15 13° 93° (E) 23:43:11 437.675
DANDE 31 May 23:45:38 23:53:56 80° 263° (W) 00:00:50 436.750
UKube-1 31 May 23:47:43 23:51:29 30° 70° (ENE) 23:55:15 .
NANOSAT C BR1 31 May 23:47:58 23:50:30 15° 94° (E) 23:53:00 145.865
ANTELSAT 31 May 23:49:00 23:53:21 71° 284° (WNW) 23:57:45 437.575/2403.000
AISAT 01 Jun 00:05:03 00:09:30 78° 76° (ENE) 00:13:59 437.250
SO-50 01 Jun 00:05:50 00:10:41 62° 302° (WNW) 00:15:33 436.795
PHONESAT 2.4 01 Jun 00:15:33 00:18:34 43° 12° (NNE) 00:21:34 2401.200-2431.200
RS-15 01 Jun 00:21:40 00:31:36 27° 36° (NE) 00:41:31 29.354- 29.394
BUGSAT 1 01 Jun 00:22:27 00:24:54 16° 94° (E) 00:27:21 437.445
DUCHIFAT 1 01 Jun 00:23:03 00:26:58 38° 99° (E) 00:30:52 145.980
DX 1 01 Jun 00:42:55 00:47:08 47° 260° (W) 00:51:23 434.975-435.025
CUBEBUG 1 01 Jun 00:45:20 00:49:25 36° 262° (W) 00:53:31 437.445
UNISAT 6 01 Jun 00:45:51 00:48:38 17° 292° (WNW) 00:51:27 437.425
50 SAT 01 Jun 00:47:13 00:50:12 24° 263° (W) 00:53:13 437.505
SPROUT 01 Jun 00:50:00 00:54:17 89° 255° (WSW) 00:58:35 437.525
TIGRISAT 01 Jun 00:51:57 00:54:29 15° 293° (WNW) 00:57:03 435.000
TISAT 1 01 Jun 00:57:10 01:00:44 27° 71° (ENE) 01:04:17 437.305
ESTCUBE 1 01 Jun 01:04:56 01:07:45 16° 267° (W) 01:10:34 437.505/2401.250
VELOX 1 01 Jun 01:05:47 01:09:18 23° 264° (W) 01:12:50 145.980
QB50P1 01 Jun 01:06:38 01:10:43 52° 286° (WNW) 01:14:48 145.935-145.965
POPSAT HIP 1 01 Jun 01:06:43 01:10:48 53° 286° (WNW) 01:14:53 437.405
QB50P2 01 Jun 01:10:46 01:14:46 43° 286° (WNW) 01:18:45 145.880/145.840
POLYITAN 1 01 Jun 01:13:16 01:17:14 42° 287° (WNW) 01:21:12 437.675
NANOSAT C BR1 01 Jun 01:22:30 01:26:19 35° 288° (WNW) 01:30:07 145.865
JAS-2 01 Jun 01:23:37 01:30:03 36° 95° (E) 01:35:46 435.910
UKube-1 01 Jun 01:24:19 01:27:30 20° 265° (W) 01:30:43 .
DANDE 01 Jun 01:31:56 01:35:09 13° 283° (WNW) 01:38:12 436.750
Oscar 19 01 Jun 01:44:27 01:48:15 20° 94° (E) 01:52:00 437.125/150
PHONESAT 2.4 01 Jun 01:52:18 01:55:19 44° 208° (SSW) 01:58:18 2401.200-2431.200
BUGSAT 1 01 Jun 01:56:47 02:00:21 31° 288° (WNW) 02:03:54 437.445
DUCHIFAT 1 01 Jun 01:59:58 02:02:18 15° 293° (WNW) 02:04:40 145.980
SWISSCUBE 01 Jun 02:19:46 02:24:18 47° 73° (ENE) 02:28:53 437.505
ITUPSAT 1 01 Jun 02:28:32 02:33:08 52° 73° (ENE) 02:37:46 437.325
TISAT 1 01 Jun 02:33:09 02:36:20 21° 265° (W) 02:39:31 437.305
RS-15 01 Jun 02:33:46 02:46:12 83° 61° (ENE) 02:58:28 29.354- 29.394
Gurwin Techsat 1B 01 Jun 02:45:12 02:50:02 34° 98° (E) 02:54:48 435.225
ISS 01 Jun 02:47:39 02:50:44 37° 37° (NE) 02:53:47 145.825
BEESAT 01 Jun 02:48:39 02:53:24 88° 81° (E) 02:58:12 436.000
Cosmos 2504 01 Jun 02:59:20 03:01:01 11° 62° (ENE) 03:02:42 435.465 / 435.565
YUBILEINY 01 Jun 03:02:11 03:10:34 47° 77° (ENE) 03:18:57 435.215
JAS-2 01 Jun 03:08:35 03:14:57 36° 294° (WNW) 03:20:41 435.910
MOZHAYETS 4 01 Jun 03:18:41 03:21:13 15° 66° (ENE) 03:23:46
Oscar 19 01 Jun 03:22:53 03:27:40 40° 289° (WNW) 03:32:25 437.125/150
Cosmos 2491 01 Jun 03:54:55 04:03:30 59° 91° (E) 04:12:06 435.465 / 435.565
AO-85 01 Jun 03:54:57 03:57:31 13° 106° (ESE) 04:00:05 145.980
SWISSCUBE 01 Jun 03:59:37 04:02:19 15° 267° (W) 04:05:02 437.505
KKS-1 01 Jun 04:02:11 04:06:34 63° 75° (ENE) 04:10:59 437.445
ITUPSAT 1 01 Jun 04:08:51 04:11:14 14° 268° (W) 04:13:38 437.325
ITAMSAT 1 01 Jun 04:14:49 04:20:04 85° 285° (WNW) 04:25:18 435.822/435.867
STARS 01 Jun 04:24:30 04:28:47 55° 74° (ENE) 04:33:05 437.465
AO-7 01 Jun 04:24:44 04:32:36 43° 101° (E) 04:40:23 29.400- 29.500
ISS 01 Jun 04:24:46 04:26:56 17° 231° (SW) 04:29:06 145.825
Gurwin Techsat 1B 01 Jun 04:25:26 04:29:46 26° 292° (WNW) 04:34:07 435.225
Cosmos 2504 01 Jun 04:47:24 04:55:59 66° 81° (E) 05:04:47 435.465 / 435.565
RS-15 01 Jun 04:48:19 04:57:14 24° 259° (W) 05:06:06 29.354- 29.394
MOZHAYETS 4 01 Jun 04:53:35 04:57:57 46° 261° (W) 05:02:22
CUBESAT XI-V 01 Jun 04:56:37 04:59:54 19° 67° (ENE) 05:03:10 437.345
YUBILEINY 01 Jun 04:59:29 05:07:00 34° 275° (W) 05:14:33 435.215
HORYU 2 01 Jun 05:22:56 05:26:43 27° 97° (E) 05:30:30 437.375
JUGNU 01 Jun 05:27:00 05:30:26 16° 174° (S) 05:33:52 437.505
